Location: Unspecified
(0.0000°N, 0.0000°E)
Time: 02:06:45
(UTC+00:00)

SKYMED 4 - Visible Passes

Search period start: 06 March 2026 00:00
Search period end: 16 March 2026 00:00
Orbit: 622 x 624 km, 97.9° (Epoch: 5 March)

Date Brightness Start Highest point End Pass type
(mag) Time Alt. Az. Time Alt. Az. Time Alt. Az.
6 Mar 6.9 05:13:27 10° SE 05:17:23 34° ENE 05:21:18 10° NNE visible
7 Mar 5.6 05:31:03 10° SSE 05:35:22 64° ENE 05:39:38 10° N visible
10 Mar 8.1 04:50:43 10° ESE 04:53:22 16° ENE 04:56:00 10° NE visible
10 Mar 8.2 18:35:35 10° NW 18:38:10 16° WNW 18:40:46 10° WSW visible
11 Mar 7.3 05:07:36 10° SE 05:11:19 28° ENE 05:15:01 10° NNE visible
12 Mar 6.0 05:25:04 10° SSE 05:29:17 51° ENE 05:33:28 10° N visible
13 Mar 5.1 05:42:53 10° S 05:47:14 85° WSW 05:51:34 10° NNW visible
15 Mar 8.3 04:45:14 10° ESE 04:47:15 13° ENE 04:49:15 10° NE visible
15 Mar 8.1 18:28:59 10° NNW 18:32:02 19° WNW 18:35:06 10° WSW visible
